�N����,����,�~����,�C��,���x,�C��,����,���ϕ���,�ő�u�ԕ���,�ő厞����,���˗�,�I�_���x,�n�����x,�ő啗���N��,DTYPE
"17/12/16","00:10",0.0,2.9,94.7,1014.0,285.6,1.0,1.4,309.4,0.00,2.2,6.4,"00:09:20",1
"17/12/16","00:20",0.0,2.9,94.8,1014.0,300.2,1.5,1.9,311.3,0.00,2.2,6.4,"00:14:48",1
"17/12/16","00:30",0.0,2.8,95.0,1013.8,306.4,1.8,2.5,322.3,0.00,2.1,6.4,"00:24:24",1
"17/12/16","00:40",0.0,2.8,95.6,1013.8,307.1,1.3,1.8,309.9,0.00,2.2,6.5,"00:32:16",1
"17/12/16","00:50",0.0,2.8,95.5,1013.8,290.0,1.3,1.6,291.5,0.00,2.2,6.5,"00:43:44",1
"17/12/16","01:00",0.0,2.9,95.9,1013.5,286.5,1.3,1.6,297.4,0.00,2.4,6.6,"00:57:52",1
"17/12/16","01:10",0.0,3.1,95.7,1013.3,287.0,1.5,2.0,327.1,0.00,2.5,6.7,"01:04:48",1
"17/12/16","01:20",0.0,3.2,95.3,1014.0,290.5,1.1,1.3,311.2,0.00,2.6,6.5,"01:16:24",1
"17/12/16","01:30",0.0,3.3,94.9,1013.8,285.4,1.2,1.7,306.6,0.00,2.6,6.6,"01:27:20",1
"17/12/16","01:40",0.0,3.4,94.6,1013.8,282.5,1.2,1.7,292.1,0.00,2.7,6.6,"01:30:02",1
"17/12/16","01:50",0.0,3.5,94.0,1013.8,295.9,1.1,1.6,307.4,0.00,2.7,6.5,"01:45:44",1
"17/12/16","02:00",0.0,3.5,93.5,1014.2,298.2,1.2,2.0,309.3,0.00,2.6,6.7,"01:50:02",1
"17/12/16","02:10",0.0,3.4,94.2,1014.0,318.2,1.8,2.6,321.7,0.00,2.6,6.6,"02:04:56",1
"17/12/16","02:20",0.0,3.4,94.6,1013.8,298.0,1.2,2.2,321.2,0.00,2.7,6.4,"02:10:08",1
"17/12/16","02:30",0.0,3.4,95.0,1014.0,300.0,1.5,1.9,312.6,0.00,2.7,6.6,"02:22:56",1
"17/12/16","02:40",0.0,3.5,94.9,1013.8,290.9,0.8,1.1,282.9,0.00,2.8,6.7,"02:36:16",1
"17/12/16","02:50",0.0,3.6,94.9,1013.5,284.9,0.6,1.4,277.9,0.00,2.9,6.5,"02:49:04",1
"17/12/16","03:00",0.0,3.6,95.0,1014.0,295.6,1.5,2.0,315.7,0.00,2.9,6.6,"02:56:24",1
"17/12/16","03:10",0.0,3.7,95.0,1013.5,278.6,1.1,1.7,312.9,0.00,3.0,6.5,"03:09:36",1
"17/12/16","03:20",0.0,3.7,94.7,1013.8,295.9,1.1,2.4,316.8,0.00,3.0,6.7,"03:19:52",1
"17/12/16","03:30",0.0,3.7,94.8,1014.0,322.0,1.8,2.2,317.7,0.00,3.0,6.7,"03:20:16",1
"17/12/16","03:40",0.0,3.7,95.0,1013.8,310.3,1.7,2.2,322.1,0.00,3.0,6.6,"03:31:20",1
"17/12/16","03:50",0.0,3.7,95.0,1013.5,284.4,1.2,1.4,304.4,0.00,3.0,6.7,"03:40:24",1
"17/12/16","04:00",0.0,3.8,94.7,1013.5,281.1,1.3,1.8,294.7,0.00,3.1,6.7,"03:52:00",1
"17/12/16","04:10",0.0,3.9,94.3,1013.3,298.8,1.6,2.4,336.3,0.00,3.1,6.7,"04:05:12",1
"17/12/16","04:20",0.0,4.0,93.8,1013.5,301.8,1.3,1.9,317.6,0.00,3.1,6.7,"04:14:16",1
"17/12/16","04:30",0.0,3.9,93.5,1013.5,298.5,1.3,1.8,318.9,0.00,3.0,6.7,"04:20:32",1
"17/12/16","04:40",0.0,3.8,93.7,1013.5,299.9,1.3,2.5,323.2,0.00,2.9,6.6,"04:36:40",1
"17/12/16","04:50",0.0,3.8,93.5,1013.3,327.4,1.5,2.4,321.4,0.00,2.9,6.7,"04:40:48",1
"17/12/16","05:00",0.0,3.6,94.2,1013.0,293.8,1.5,2.0,317.4,0.00,2.8,6.7,"04:51:28",1
"17/12/16","05:10",0.0,3.5,94.7,1012.8,310.7,1.7,2.6,329.4,0.00,2.8,6.6,"05:04:24",1
"17/12/16","05:20",0.0,3.3,94.7,1012.8,294.8,1.3,1.9,316.5,0.00,2.6,6.6,"05:10:40",1
"17/12/16","05:30",0.0,3.2,95.2,1012.8,266.9,0.7,1.2,261.6,0.00,2.5,6.5,"05:22:48",1
"17/12/16","05:40",0.0,3.2,95.3,1012.8,298.7,1.1,1.8,295.9,0.00,2.6,6.7,"05:39:28",1
"17/12/16","05:50",0.0,3.0,95.3,1012.8,320.1,2.1,2.6,318.8,0.00,2.4,6.6,"05:41:44",1
"17/12/16","06:00",0.0,2.8,96.0,1012.6,300.0,1.7,2.4,320.0,0.00,2.3,6.6,"05:51:36",1
"17/12/16","06:10",0.0,2.8,96.4,1012.8,276.7,1.6,2.0,274.9,0.00,2.3,6.6,"06:05:44",1
"17/12/16","06:20",0.0,2.6,96.3,1012.1,302.8,1.7,2.2,318.2,0.00,2.1,6.4,"06:15:36",1
"17/12/16","06:30",0.0,2.3,96.5,1012.1,287.6,1.3,2.6,310.9,0.00,1.8,6.4,"06:20:02",1
"17/12/16","06:40",0.0,2.1,97.2,1012.1,295.2,1.8,2.5,310.6,0.00,1.7,6.6,"06:30:56",1
"17/12/16","06:50",0.0,2.0,97.1,1012.6,308.7,2.0,2.8,319.8,0.00,1.6,6.4,"06:49:52",1
"17/12/16","07:00",0.0,1.5,97.1,1012.1,307.3,2.1,2.7,313.3,0.00,1.1,6.2,"06:50:56",1
"17/12/16","07:10",0.0,1.5,98.5,1012.1,285.7,1.3,1.8,307.5,0.00,1.3,6.2,"07:07:12",1
"17/12/16","07:20",0.0,1.8,97.7,1011.9,283.7,1.5,2.1,308.3,0.00,1.5,6.1,"07:17:44",1
"17/12/16","07:30",0.0,1.9,98.6,1011.4,282.1,1.7,2.1,273.0,0.00,1.7,6.1,"07:22:32",1
"17/12/16","07:40",0.0,2.4,97.8,1011.6,285.7,1.7,2.0,277.3,0.00,2.1,6.0,"07:32:00",1
"17/12/16","07:50",0.0,2.6,98.4,1011.4,292.7,2.0,3.1,321.5,0.02,2.4,6.1,"07:46:24",1
"17/12/16","08:00",0.0,3.0,97.1,1011.6,312.6,1.6,2.6,317.1,0.03,2.6,6.1,"07:51:36",1
"17/12/16","08:10",0.0,3.6,96.5,1011.9,298.2,1.5,2.0,310.7,0.04,3.1,6.1,"08:01:28",1
"17/12/16","08:20",0.0,3.8,95.0,1011.6,319.1,1.7,2.7,315.4,0.02,3.1,6.2,"08:11:12",1
"17/12/16","08:30",0.0,3.9,95.5,1011.4,304.8,1.2,2.0,321.1,0.04,3.3,6.2,"08:23:20",1
"17/12/16","08:40",0.0,4.3,94.7,1011.6,289.2,1.2,2.2,302.2,0.06,3.6,6.1,"08:30:02",1
"17/12/16","08:50",0.0,4.9,92.4,1011.9,305.7,2.5,3.3,317.4,0.07,3.8,6.3,"08:45:44",1
"17/12/16","09:00",0.0,5.2,90.5,1012.1,309.0,2.2,3.6,319.3,0.05,3.8,6.5,"08:50:48",1
"17/12/16","09:10",0.0,5.4,89.8,1012.6,297.0,1.3,2.1,307.5,0.04,3.9,6.4,"09:00:24",1
"17/12/16","09:20",0.0,5.5,90.1,1012.1,280.9,1.0,1.6,266.1,0.06,4.0,6.7,"09:19:12",1
"17/12/16","09:30",0.0,5.9,88.5,1012.6,269.5,1.2,1.7,259.3,0.10,4.2,6.6,"09:27:44",1
"17/12/16","09:40",0.0,5.9,86.3,1012.3,279.5,1.5,2.6,318.0,0.13,3.8,6.8,"09:39:44",1
"17/12/16","09:50",0.0,6.2,86.1,1012.6,277.4,1.0,1.8,330.0,0.12,4.1,6.8,"09:40:24",1
"17/12/16","10:00",0.0,6.5,85.2,1012.6,256.7,0.8,1.3,254.6,0.12,4.2,6.9,"09:57:52",1
"17/12/16","10:10",0.0,6.4,83.1,1012.6,293.6,1.5,2.6,323.8,0.13,3.8,7.1,"10:04:32",1
"17/12/16","10:20",0.0,6.8,83.2,1013.0,291.5,1.5,2.8,326.6,0.13,4.2,7.2,"10:10:16",1
"17/12/16","10:30",0.0,7.2,81.7,1012.6,279.2,1.0,1.6,271.2,0.13,4.3,7.2,"10:29:28",1
"17/12/16","10:40",0.0,7.2,80.3,1012.6,264.9,0.8,1.6,256.5,0.16,4.1,7.2,"10:30:24",1
"17/12/16","10:50",0.0,7.4,80.0,1012.6,43.6,0.7,1.8,323.1,0.19,4.2,7.6,"10:47:04",1
"17/12/16","11:00",0.0,7.6,79.5,1011.4,258.6,0.8,1.9,242.6,0.16,4.3,7.5,"10:52:16",1
"17/12/16","11:10",0.0,7.9,78.3,1012.1,270.8,1.5,1.9,270.7,0.14,4.4,7.5,"11:05:04",1
"17/12/16","11:20",0.0,7.9,77.9,1011.9,256.5,0.8,1.9,247.0,0.08,4.3,7.7,"11:17:28",1
"17/12/16","11:30",0.0,7.9,78.2,1011.9,270.6,0.7,1.4,247.2,0.07,4.4,7.8,"11:24:40",1
"17/12/16","11:40",0.0,7.8,77.9,1011.4,245.6,0.6,1.3,230.2,0.07,4.2,8.0,"11:31:12",1
"17/12/16","11:50",0.0,7.8,78.0,1011.4,284.6,0.6,1.1,260.6,0.05,4.2,7.7,"11:48:00",1
"17/12/16","12:00",0.0,8.1,78.3,1010.7,213.7,0.5,1.3,118.2,0.08,4.6,7.9,"11:57:36",1
"17/12/16","12:10",0.0,8.1,77.2,1010.7,288.5,0.7,1.4,241.5,0.08,4.4,7.8,"12:08:16",1
"17/12/16","12:20",0.0,8.3,76.8,1010.7,70.5,0.5,1.2,309.1,0.09,4.5,7.8,"12:12:32",1
"17/12/16","12:30",0.0,8.4,76.7,1010.2,203.1,0.6,1.3,109.8,0.10,4.6,8.2,"12:26:08",1
"17/12/16","12:40",0.0,8.4,76.0,1010.7,260.6,0.8,1.3,259.0,0.09,4.5,7.9,"12:34:16",1
"17/12/16","12:50",0.0,8.5,76.1,1010.2,254.5,0.6,1.2,253.7,0.07,4.6,7.9,"12:48:16",1
"17/12/16","13:00",0.0,8.8,76.6,1010.2,74.4,0.6,1.3,102.1,0.09,5.0,8.1,"12:54:24",1
"17/12/16","13:10",0.0,9.1,75.7,1009.5,253.0,1.0,1.9,230.6,0.12,5.1,8.4,"13:07:28",1
"17/12/16","13:20",0.0,9.1,75.5,1009.5,200.2,0.7,1.4,143.5,0.12,5.0,8.2,"13:10:24",1
"17/12/16","13:30",0.0,9.7,75.2,1009.3,110.3,0.7,1.9,111.1,0.21,5.6,8.4,"13:26:56",1
"17/12/16","13:40",0.0,10.1,71.6,1009.3,119.5,0.8,2.6,102.6,0.27,5.2,8.7,"13:32:32",1
"17/12/16","13:50",0.0,10.3,70.0,1009.5,40.3,0.8,2.0,111.3,0.22,5.1,8.8,"13:41:36",1
"17/12/16","14:00",0.0,10.5,68.7,1009.0,22.9,0.8,2.2,106.1,0.18,5.0,8.8,"13:51:20",1
"17/12/16","14:10",0.0,10.9,65.0,1009.0,358.5,1.0,1.9,338.9,0.25,4.6,8.9,"14:04:32",1
"17/12/16","14:20",0.0,11.0,63.5,1009.0,279.9,1.2,3.6,318.9,0.21,4.4,8.9,"14:10:40",1
"17/12/16","14:30",0.0,11.1,60.4,1008.6,256.0,2.1,4.2,238.6,0.18,3.8,9.0,"14:20:02",1
"17/12/16","14:40",0.0,11.3,59.2,1008.8,281.1,2.6,5.4,231.6,0.17,3.7,9.0,"14:33:52",1
"17/12/16","14:50",0.0,11.2,58.3,1008.6,281.9,2.5,4.4,305.7,0.17,3.4,9.1,"14:40:16",1
"17/12/16","15:00",0.0,11.2,59.1,1008.8,285.4,2.7,5.2,313.4,0.15,3.6,9.3,"14:56:08",1
"17/12/16","15:10",0.0,11.2,57.8,1008.6,285.9,2.6,6.6,304.7,0.10,3.2,9.1,"15:00:48",1
"17/12/16","15:20",0.0,10.7,59.2,1008.1,282.0,2.1,3.4,337.3,0.06,3.1,9.2,"15:15:20",1
"17/12/16","15:30",0.0,10.3,61.2,1008.3,256.0,2.2,4.7,241.0,0.04,3.2,9.2,"15:28:00",1
"17/12/16","15:40",0.0,10.1,62.9,1008.3,251.5,2.8,5.2,208.3,0.04,3.4,9.0,"15:30:16",1
"17/12/16","15:50",0.0,9.9,63.7,1008.3,261.8,2.2,3.9,315.4,0.02,3.4,8.9,"15:44:00",1
"17/12/16","16:00",0.0,9.9,63.9,1008.3,279.8,3.0,5.4,327.6,0.01,3.4,9.0,"15:56:32",1
"17/12/16","16:10",0.0,9.8,64.7,1008.3,306.7,2.2,5.9,336.2,0.00,3.5,8.7,"16:01:52",1
"17/12/16","16:20",0.0,9.7,65.3,1008.8,280.4,1.8,3.1,307.8,0.00,3.6,8.9,"16:13:20",1
"17/12/16","16:30",0.0,9.7,65.4,1008.6,297.8,2.1,3.9,268.0,0.00,3.6,8.7,"16:28:56",1
"17/12/16","16:40",0.0,9.6,65.8,1008.1,290.7,2.0,4.7,286.9,0.00,3.6,8.7,"16:30:56",1
"17/12/16","16:50",0.0,9.4,66.6,1008.1,279.4,2.0,4.3,253.4,0.00,3.5,8.7,"16:45:36",1
"17/12/16","17:00",0.0,9.2,67.8,1007.8,271.3,1.7,2.6,324.3,0.00,3.6,8.7,"16:56:16",1
"17/12/16","17:10",0.0,8.9,69.0,1008.6,277.7,1.6,2.6,275.8,0.00,3.6,8.5,"17:04:24",1
"17/12/16","17:20",0.0,8.8,69.7,1008.3,281.8,1.7,2.9,298.7,0.00,3.6,8.6,"17:18:16",1
"17/12/16","17:30",0.0,8.2,72.7,1008.1,335.2,1.5,2.1,345.3,0.00,3.6,8.5,"17:23:12",1
"17/12/16","17:40",0.0,7.6,76.6,1008.1,316.2,1.2,2.0,324.1,0.00,3.8,8.3,"17:30:16",1
"17/12/16","17:50",0.0,7.2,78.6,1008.3,294.9,1.1,1.6,319.5,0.00,3.8,8.2,"17:40:16",1
"17/12/16","18:00",0.0,7.1,80.6,1007.8,324.1,1.8,2.5,320.1,0.00,4.0,8.5,"17:57:36",1
"17/12/16","18:10",0.0,7.4,80.1,1007.6,323.5,2.2,3.5,339.4,0.00,4.2,8.4,"18:05:52",1
"17/12/16","18:20",0.0,7.7,78.0,1007.8,324.3,2.2,3.5,333.6,0.00,4.2,8.2,"18:19:04",1
"17/12/16","18:30",0.0,7.8,77.0,1008.1,319.9,2.2,3.2,334.8,0.00,4.1,8.2,"18:23:52",1
"17/12/16","18:40",0.0,7.8,76.5,1007.8,324.3,2.5,3.5,328.0,0.00,4.0,8.2,"18:32:48",1
"17/12/16","18:50",0.0,7.7,77.3,1008.1,313.8,2.3,3.9,333.6,0.00,4.0,8.3,"18:49:28",1
"17/12/16","19:00",0.0,7.6,76.6,1007.8,310.1,2.5,3.6,318.4,0.00,3.8,8.2,"18:50:08",1
"17/12/16","19:10",0.0,7.6,76.9,1007.8,296.7,2.0,2.7,309.9,0.00,3.9,8.0,"19:01:52",1
"17/12/16","19:20",0.0,7.6,76.7,1008.3,298.2,1.8,3.5,329.6,0.00,3.8,8.2,"19:19:20",1
"17/12/16","19:30",0.0,8.2,73.5,1009.0,331.5,3.6,6.4,349.2,0.00,3.8,7.9,"19:22:08",1
"17/12/16","19:40",0.0,8.1,71.2,1008.8,326.7,4.2,8.1,337.8,0.00,3.2,7.9,"19:30:40",1
"17/12/16","19:50",0.0,7.8,71.4,1009.0,329.9,3.9,5.4,336.3,0.00,3.0,8.0,"19:48:16",1
"17/12/16","20:00",0.0,7.7,71.2,1009.0,320.4,3.1,6.7,318.7,0.00,2.9,8.1,"19:50:24",1
"17/12/16","20:10",0.0,7.5,72.4,1009.3,299.4,1.8,3.1,332.4,0.00,2.9,8.0,"20:05:52",1
"17/12/16","20:20",0.0,7.5,71.6,1009.7,320.1,4.2,9.0,336.5,0.00,2.7,7.9,"20:18:16",1
"17/12/16","20:30",0.0,7.2,72.5,1009.7,321.6,4.6,7.2,335.4,0.00,2.6,7.9,"20:29:12",1
"17/12/16","20:40",0.0,7.1,73.0,1009.7,304.1,3.1,6.6,334.4,0.00,2.6,7.8,"20:31:04",1
"17/12/16","20:50",0.0,6.9,73.4,1010.0,325.4,3.9,5.6,316.1,0.00,2.5,7.9,"20:45:36",1
"17/12/16","21:00",0.0,6.9,69.2,1009.5,324.9,5.5,9.1,336.0,0.00,1.7,7.9,"20:57:04",1
"17/12/16","21:10",0.0,6.8,66.4,1010.0,313.1,3.9,6.3,332.1,0.00,1.0,7.7,"21:09:08",1
"17/12/16","21:20",0.0,6.8,65.8,1010.2,313.0,3.6,6.4,328.6,0.00,0.9,7.5,"21:10:32",1
"17/12/16","21:30",0.0,6.6,65.2,1010.0,307.9,4.4,7.9,334.5,0.00,0.6,7.8,"21:20:08",1
"17/12/16","21:40",0.0,6.4,66.3,1010.4,313.9,3.2,5.7,334.2,0.00,0.6,7.6,"21:33:28",1
"17/12/16","21:50",0.0,6.2,66.9,1010.4,278.9,2.0,3.3,249.5,0.00,0.6,7.7,"21:43:54",1
"17/12/16","22:00",0.0,6.3,63.3,1010.7,303.7,3.1,7.8,344.6,0.00,-0.1,7.5,"21:58:40",1
"17/12/16","22:10",0.0,6.3,62.3,1010.4,304.2,2.6,4.3,308.7,0.00,-0.3,7.7,"22:02:10",1
"17/12/16","22:20",0.0,6.4,57.4,1010.7,318.5,4.2,7.4,323.3,0.00,-1.4,7.6,"22:16:32",1
"17/12/16","22:30",0.0,6.4,55.4,1010.7,324.0,5.5,10.6,342.3,0.00,-1.8,7.5,"22:20:16",1
"17/12/16","22:40",0.0,6.3,56.0,1010.9,319.7,5.0,10.8,340.6,0.00,-1.8,7.5,"22:30:40",1
"17/12/16","22:50",0.0,6.3,55.7,1011.2,305.5,3.4,5.6,338.6,0.00,-1.9,7.2,"22:42:16",1
"17/12/16","23:00",0.0,6.2,54.7,1011.4,322.5,4.9,8.3,323.2,0.00,-2.2,7.3,"22:58:32",1
"17/12/16","23:10",0.0,6.0,55.9,1011.4,315.5,4.0,6.7,335.0,0.00,-2.1,7.4,"23:07:54",1
"17/12/16","23:20",0.0,5.9,56.5,1011.6,300.0,3.5,5.7,317.3,0.00,-2.0,7.5,"23:12:48",1
"17/12/16","23:30",0.0,5.7,57.6,1011.4,311.3,3.0,7.5,349.2,0.00,-2.0,7.0,"23:22:16",1
"17/12/16","23:40",0.0,5.6,58.9,1011.6,315.8,2.5,5.0,316.1,0.00,-1.8,7.1,"23:31:44",1
"17/12/16","23:50",0.0,5.5,58.3,1011.2,304.7,2.8,5.8,335.5,0.00,-2.0,7.2,"23:47:20",1
"17/12/16","24:00",0.0,5.3,58.0,1011.2,301.7,3.0,6.5,330.4,0.00,-2.2,7.2,"23:57:30",1
